(116604) = 2004 BQ108 = 2002 VH57

Discovered at Catalina on 2004-01-28 by CSS.

Orbit

Orbit type: Main Belt

Note: WebGL enabled browser required.

epoch2024-03-31.0
epoch JD2460400.5
perihelion date2023-10-30.12618
perihelion JD2460247.62618
argument of perihelion (°)180.73558
ascending node (°)67.39392
inclination (°)5.34619
eccentricity0.1032431
perihelion distance (AU)2.1640572
Tisserand w.r.t. Jupiter3.5
ΔV w.r.t. Earth (km/sec)9.3
semimajor axis (AU)2.4132039
mean anomaly (°)40.19258
mean daily motion (°/day)0.26291350
aphelion distance (AU)2.662
period (years)3.75
P-vector [x]-0.37256155
P-vector [y]-0.85095371
P-vector [z]-0.37023732
Q-vector [x]0.92401264
Q-vector [y]-0.30317806
Q-vector [z]-0.23298862
absolute magnitude15.97
phase slope0.15
uncertainty0
referenceMPEC 2024-E123
observations used980
oppositions16
arc length (days)8664
first opposition used1999
last opposition used2023
residual rms (arc-secs)0.73
perturbers coarse indicatorM-v
perturbers precise indicator003Ek
first observation date used1999-11-16.0
last observation date used2023-08-06.0
computer nameMPCLINUX
JD of orbit computation2456966.920025
perihelion JD uncertainty (days)9.8333E-05
argument of perihelion uncertainty (°)5.9986E-05
ascending node uncertainty (°)5.2058E-05
inclination uncertainty (°)5.3432E-06
eccentricity uncertainty 5.1291E-08
perihelion distance uncertainty (AU)1.1889E-07
Minimum Orbit Intersection Distances (in AU)
for orbit epoch: 2460200.5, reference: E2023-UA0
Mercury1.6988
Venus1.4386
Earth1.14944
Mars0.61415
Jupiter2.34501
Saturn6.40466
Uranus16.0466
Neptune27.2143

Observations

993 total observations over interval: 1999 11 16.46284 – 2023 08 06.276951
These data are available for download (format description).

Date (UT) J2000 RA J2000 Dec Magn Location Ref
1999 11 16.46284 08 20 56.52 +23 20 49.5 21.3 V 691 – Steward Observatory, Kitt Peak-Spacewatch MPS 104331
1999 11 16.48985 08 20 57.14 +23 20 52.8 21.0 V 691 – Steward Observatory, Kitt Peak-Spacewatch MPS 104331
1999 11 16.51449 08 20 57.71 +23 20 54.4 21.3 V 691 – Steward Observatory, Kitt Peak-Spacewatch MPS 104331
2002 10 30.31958 02 34 55.17 +10 46 20.2 19.2   644 – Palomar Mountain/NEAT MPS 100692
2002 10 30.34388 02 34 53.61 +10 46 15.5 19.4   644 – Palomar Mountain/NEAT MPS 100692
2002 10 30.42773 02 34 48.36 +10 45 59.8 19.7   644 – Palomar Mountain/NEAT MPS 100692
2002 11 06.47698 02 27 38.21 +10 24 47.8 20.7   608 – Haleakala-AMOS MPS 66452
2002 11 06.48795 02 27 37.52 +10 24 46.2 20.4   608 – Haleakala-AMOS MPS 66452
2002 11 06.49835 02 27 36.86 +10 24 44.3 20.8   608 – Haleakala-AMOS MPS 66452
2002 11 07.29236 02 26 49.19 +10 22 29.4 19.5   704 – Lincoln Laboratory ETS, New Mexico MPS 66452
2002 11 07.31013 02 26 48.19 +10 22 25.2 19.4   704 – Lincoln Laboratory ETS, New Mexico MPS 66452
2002 11 07.32759 02 26 47.03 +10 22 22.1 19.5   704 – Lincoln Laboratory ETS, New Mexico MPS 66452
2002 11 07.34511 02 26 45.98 +10 22 20.0 19.8   704 – Lincoln Laboratory ETS, New Mexico MPS 66452
2002 11 22.26220 02 13 13.97 +09 49 28.8 19.9   644 – Palomar Mountain/NEAT MPS 100692
2002 11 22.26333 02 13 13.96 +09 49 28.8 19.8   644 – Palomar Mountain/NEAT MPS 100692
2002 11 22.28280 02 13 12.97 +09 49 27.1 20.2   644 – Palomar Mountain/NEAT MPS 100692
2002 11 22.28398 02 13 12.93 +09 49 26.6 19.8   644 – Palomar Mountain/NEAT MPS 100692
2002 11 22.30420 02 13 11.96 +09 49 25.0 20.1   644 – Palomar Mountain/NEAT MPS 100692
2002 11 22.30534 02 13 11.89 +09 49 24.9 19.9   644 – Palomar Mountain/NEAT MPS 100693
2004 01 18.40020 10 19 11.02 +18 50 45.6 19.2   644 – Palomar Mountain/NEAT MPS 109934
2004 01 18.42197 10 19 10.31 +18 50 53.4 19.2   644 – Palomar Mountain/NEAT MPS 109934
2004 01 18.44236 10 19 09.66 +18 51 00.7 19.3   644 – Palomar Mountain/NEAT MPS 109934
2004 01 23.33057 10 16 23.02 +19 21 01.0 19.5   704 – Lincoln Laboratory ETS, New Mexico MPS 109934
2004 01 23.34325 10 16 22.50 +19 21 06.0 19.6   704 – Lincoln Laboratory ETS, New Mexico MPS 109934
2004 01 23.35616 10 16 22.00 +19 21 11.4 19.9   704 – Lincoln Laboratory ETS, New Mexico MPS 109934
2004 01 23.36895 10 16 21.44 +19 21 15.1 19.4   704 – Lincoln Laboratory ETS, New Mexico MPS 109934
2004 01 23.38163 10 16 20.92 +19 21 20.9 19.9   704 – Lincoln Laboratory ETS, New Mexico MPS 109934
2004 01 28.26259 10 12 55.67 +19 53 05.5 16.6 V 703 – Catalina Sky Survey MPS 98898
2004 01 28.27325 10 12 55.16 +19 53 11.8 19.3 V 703 – Catalina Sky Survey MPS 98898
2004 01 28.28390 10 12 54.66 +19 53 15.5 19.2 V 703 – Catalina Sky Survey MPS 98898
2004 01 28.29462 10 12 54.14 +19 53 18.9 19.3 V 703 – Catalina Sky Survey MPS 98898
2004 01 30.33693 10 11 17.64 +20 06 55.2 19.5   704 – Lincoln Laboratory ETS, New Mexico MPS 98898
2004 01 30.34927 10 11 17.01 +20 07 01.4 19.1   704 – Lincoln Laboratory ETS, New Mexico MPS 98898
2004 01 30.36197 10 11 16.38 +20 07 05.6 19.5   704 – Lincoln Laboratory ETS, New Mexico MPS 98898
2004 01 30.37460 10 11 15.76 +20 07 10.9 19.5   704 – Lincoln Laboratory ETS, New Mexico MPS 98898
2004 01 30.38686 10 11 15.12 +20 07 16.7 20.1   704 – Lincoln Laboratory ETS, New Mexico MPS 98898
2004 02 11.28409 10 00 20.61 +21 25 36.1 18.7   644 – Palomar Mountain/NEAT MPS 98898
2004 02 11.36272 10 00 15.72 +21 26 06.0 18.5   644 – Palomar Mountain/NEAT MPS 98898
2004 02 11.42928 10 00 11.61 +21 26 30.7 18.7   644 – Palomar Mountain/NEAT MPS 98898
2004 02 13.40921 09 58 11.90 +21 38 43.9 19.3 V 691 – Steward Observatory, Kitt Peak-Spacewatch MPS 98898
2004 02 13.43618 09 58 10.19 +21 38 53.5 19.2 V 691 – Steward Observatory, Kitt Peak-Spacewatch MPS 98898
2004 02 13.46416 09 58 08.46 +21 39 03.5 19.2 V 691 – Steward Observatory, Kitt Peak-Spacewatch MPS 98898
2004 02 27.38520 09 44 04.48 +22 50 09.0 20.4   608 – Haleakala-AMOS MPS 100717
2004 02 27.39622 09 44 03.78 +22 50 12.3 20.1   608 – Haleakala-AMOS MPS 100717
2004 02 27.40743 09 44 03.15 +22 50 14.1 20.5   608 – Haleakala-AMOS MPS 100717
2004 03 09.13266 09 34 46.83 +23 20 59.6 18.1   644 – Palomar Mountain/NEAT MPS 100884
2004 03 09.15516 09 34 45.74 +23 21 01.3 18.6   644 – Palomar Mountain/NEAT MPS 100884
2004 03 09.19091 09 34 44.08 +23 21 05.4 19.1   644 – Palomar Mountain/NEAT MPS 100884
2004 03 14.22783 09 31 17.19 +23 27 27.4 19.8   704 – Lincoln Laboratory ETS, New Mexico MPS 101218
2004 03 14.23859 09 31 16.65 +23 27 28.1 19.5   704 – Lincoln Laboratory ETS, New Mexico MPS 101218
2004 03 14.25996 09 31 15.87 +23 27 29.0 20.2   704 – Lincoln Laboratory ETS, New Mexico MPS 101218
2004 03 14.27062 09 31 15.46 +23 27 28.9 20.0   704 – Lincoln Laboratory ETS, New Mexico MPS 101218
2004 03 18.14110 09 29 05.83 +23 28 53.5 18.8   644 – Palomar Mountain/NEAT MPS 102227
2004 03 18.16169 09 29 05.18 +23 28 53.5 19.1   644 – Palomar Mountain/NEAT MPS 102227
2004 03 18.18264 09 29 04.49 +23 28 53.8 19.0   644 – Palomar Mountain/NEAT MPS 102227
2004 03 20.22681 09 28 06.71 +23 28 26.6 19.7   704 – Lincoln Laboratory ETS, New Mexico MPS 102227
2004 03 20.23751 09 28 06.35 +23 28 26.4 19.6   704 – Lincoln Laboratory ETS, New Mexico MPS 102227
2004 03 20.24875 09 28 06.07 +23 28 26.0 20.2   704 – Lincoln Laboratory ETS, New Mexico MPS 102227
2004 03 20.25968 09 28 05.80 +23 28 25.1 19.9   704 – Lincoln Laboratory ETS, New Mexico MPS 102227
2004 03 20.27046 09 28 05.38 +23 28 25.1 19.8   704 – Lincoln Laboratory ETS, New Mexico MPS 102227
2005 07 10.65115 20 50 17.91 -25 28 27.7 19.1 V E12 – Siding Spring Survey MPS 137964
2005 07 10.66321 20 50 17.30 -25 28 31.8 18.7 V E12 – Siding Spring Survey MPS 137964
2005 07 10.67506 20 50 16.72 -25 28 37.0 19.0 V E12 – Siding Spring Survey MPS 137964
2005 07 10.68696 20 50 16.11 -25 28 41.6 18.4 V E12 – Siding Spring Survey MPS 137964
2005 07 15.69622 20 46 03.71 -25 59 34.8 18.3 V 428 – Reedy Creek MPS 138362
2005 07 15.70110 20 46 03.38 -25 59 35.1 18.3 V 428 – Reedy Creek MPS 138362
2005 07 29.65899 20 32 31.09 -27 16 05.5 18.4 V E12 – Siding Spring Survey MPS 138634
2005 07 29.66990 20 32 30.44 -27 16 08.5 18.4 V E12 – Siding Spring Survey MPS 138634
2005 07 29.68083 20 32 29.76 -27 16 11.2 18.4 V E12 – Siding Spring Survey MPS 138634
2005 07 29.69175 20 32 29.04 -27 16 14.5 18.6 V E12 – Siding Spring Survey MPS 138634
2005 08 12.70754 20 19 15.31 -28 05 16.6 18.9 V E12 – Siding Spring Survey MPS 139651
2005 08 12.72377 20 19 14.41 -28 05 18.5 18.9 V E12 – Siding Spring Survey MPS 139651
2005 08 12.74036 20 19 13.58 -28 05 20.6 18.6 V E12 – Siding Spring Survey MPS 139651
2005 08 12.75740 20 19 12.72 -28 05 22.8 19.0 V E12 – Siding Spring Survey MPS 139651
2005 09 01.47839 20 08 00.96 -28 16 04.2 18.2 V E12 – Siding Spring Survey MPS 140199
2005 09 01.49264 20 08 00.78 -28 16 05.2 19.2 V E12 – Siding Spring Survey MPS 140199
2005 09 01.51596 20 08 00.38 -28 16 04.3 18.9 V E12 – Siding Spring Survey MPS 140199
2005 09 01.52984 20 08 00.13 -28 16 02.6 18.5 V E12 – Siding Spring Survey MPS 140199
2006 09 28.36065 04 42 44.28 +20 21 22.5 20.3 V G96 – Mt. Lemmon Survey MPS 183544
2006 09 28.37059 04 42 44.42 +20 21 23.1 20.4 V G96 – Mt. Lemmon Survey MPS 183544
2006 09 28.38046 04 42 44.53 +20 21 23.8 20.5 V G96 – Mt. Lemmon Survey MPS 183544
2006 09 28.39031 04 42 44.74 +20 21 24.9 20.3 V G96 – Mt. Lemmon Survey MPS 183544
2006 10 20.42290 04 41 21.63 +20 41 35.2 20.5 R 695 – Kitt Peak MPS 191695
2006 10 20.47876 04 41 20.20 +20 41 36.8   695 – Kitt Peak MPS 191695
2006 10 28.33202 04 37 20.13 +20 44 25.2 19.0 V G96 – Mt. Lemmon Survey MPS 186451
2006 10 28.34233 04 37 19.88 +20 44 25.1 19.2 V G96 – Mt. Lemmon Survey MPS 186451
2006 10 28.35259 04 37 19.34 +20 44 25.4 19.9 V G96 – Mt. Lemmon Survey MPS 186451
2006 10 28.36292 04 37 18.94 +20 44 25.6 19.9 V G96 – Mt. Lemmon Survey MPS 186451
2006 11 11.28496 04 26 10.23 +20 43 02.8 20.0 V 691 – Steward Observatory, Kitt Peak-Spacewatch MPS 188218
2006 11 11.30233 04 26 09.18 +20 43 02.8 20.1 V 691 – Steward Observatory, Kitt Peak-Spacewatch MPS 188218
